Location: Newark
(45.7425°N, 0.7617°W)
Time: 06:22:11
(UTC+00:00)

N. Korean satellite - Pass Details

Date: 28 January 2020
Orbit: 456 x 505 km, 97.2° (Epoch: 27 February)

Event Time Altitude Azimuth Distance (km) Brightness Sun altitude
Rises 18:11:53 0° 216° (SW) 2,463 11.0 -12.2°
Reaches altitude 10° 18:15:21 10° 254° (WSW) 1,600 10.7 -12.8°
Maximum altitude 18:16:17 11° 271° (W) 1,549 10.4 -13.0°
Drops below altitude 10° 18:17:15 10° 287° (WNW) 1,607 10.2 -13.1°
Sets 18:20:46 0° 325° (NW) 2,498 10.5 -13.7°
